Wise, VA

6:48 AM EST on November 20, 2019 (GMT -0500)
Lonesome Pine

Weather History for KLNP - September, 2019

Change the Weather History Date:

Monday, September 16, 2019

  Actual Average Record
Temperature  
Mean Temperature 74 °F -  
Max Temperature 87 °F 72 °F 87 °F (2019)
Min Temperature 62 °F 53 °F 39 °F (2000)
Cooling Degree Days 10    
Growing Degree Days 24 (Base 50)    
Moisture  
Dew Point 49 °F    
Average Humidity 40    
Maximum Humidity 64    
Minimum Humidity 24    
Precipitation  
Precipitation 0.00 in - - ()
Sea Level Pressure  
Sea Level Pressure 30.19 in    
Wind  
Wind Speed 3 mph (WNW)    
Max Wind Speed 10 mph    
Max Gust Speed 16 mph    
Visibility 10 miles    
Events Rain    
Averages and records for this station are not official NWS values.
T = Trace of Precipitation, MM = Missing Value Source: NWS Daily Summary

Daily Weather History Graph

Daily Weather History Graph

Search for Another Location

Airport or City:

Astronomy

Sep. 16, 2019 Rise Set
Actual Time 7:12 AM EDT 7:36 PM EDT
Civil Twilight 6:46 AM EDT 8:02 PM EDT
Nautical Twilight 6:16 AM EDT 8:32 PM EDT
Astronomical Twilight 5:45 AM EDT 9:04 PM EDT
Moon 9:13 PM EDT (9/16) 9:16 AM EDT (9/16)
Length of Visible Light 13h 15m
Length of Day
12h 23m
Waning Gibbous, 94% of the Moon is Illuminated
Sep 16
Waning Gibbous
Sep 21
Last Quarter
Sep 28
New
Oct 5
First Quarter
Oct 13
Full

Hourly Weather History & Observations

Time (EDT) Temp. Heat Index Dew Point Humidity Pressure Visibility Wind Dir Wind Speed Gust Speed Precip Events Conditions
12:15 AM 69.8 °F - 41.0 °F 35% 30.22 in 10.0 mi Calm Calm - N/A   Clear
12:35 AM 69.8 °F - 37.4 °F 31% 30.22 in 10.0 mi Calm Calm - N/A   Clear
12:55 AM 69.8 °F - 37.4 °F 31% 30.23 in 10.0 mi Calm Calm - N/A   Clear
1:15 AM 62.6 °F - 42.8 °F 48% 30.23 in 10.0 mi SSW 4.6 mph - N/A   Clear
1:35 AM 64.4 °F - 42.8 °F 45% 30.22 in 10.0 mi Calm Calm - N/A   Clear
1:55 AM 64.4 °F - 42.8 °F 45% 30.23 in 10.0 mi SSW 3.5 mph - N/A   Clear
2:15 AM 68.0 °F - 41.0 °F 37% 30.22 in 10.0 mi Calm Calm - N/A   Clear
2:55 AM 68.0 °F - 41.0 °F 37% 30.21 in 10.0 mi Calm Calm - N/A   Clear
3:15 AM 64.4 °F - 42.8 °F 45% 30.21 in 10.0 mi SW 3.5 mph - N/A   Clear
3:35 AM 66.2 °F - 41.0 °F 40% 30.21 in 10.0 mi SSW 3.5 mph - N/A   Clear
3:55 AM 66.2 °F - 41.0 °F 40% 30.21 in 10.0 mi SSW 3.5 mph - N/A   Clear
4:15 AM 62.6 °F - 42.8 °F 48% 30.21 in 10.0 mi SSW 3.5 mph - N/A   Clear
4:35 AM 66.2 °F - 42.8 °F 43% 30.21 in 10.0 mi Calm Calm - N/A   Clear
4:55 AM 64.4 °F - 42.8 °F 45% 30.21 in 10.0 mi Calm Calm - N/A   Clear
5:15 AM 68.0 °F - 41.0 °F 37% 30.21 in 10.0 mi Calm Calm - N/A   Clear
5:35 AM 69.8 °F - 41.0 °F 35% 30.21 in 10.0 mi Calm Calm - N/A   Clear
5:55 AM 66.2 °F - 41.0 °F 40% 30.21 in 10.0 mi Calm Calm - N/A   Clear
6:15 AM 66.2 °F - 42.8 °F 43% 30.21 in 10.0 mi Calm Calm - N/A   Clear
6:35 AM 64.4 °F - 42.8 °F 45% 30.22 in 10.0 mi SSW 3.5 mph - N/A   Clear
6:55 AM 64.4 °F - 42.8 °F 45% 30.22 in 10.0 mi Calm Calm - N/A   Clear
7:15 AM 64.4 °F - 42.8 °F 45% 30.22 in 10.0 mi Calm Calm - N/A   Clear
7:35 AM 62.6 °F - 44.6 °F 52% 30.22 in 10.0 mi SW 3.5 mph - N/A   Clear
7:55 AM 64.4 °F - 44.6 °F 49% 30.23 in 10.0 mi SW 3.5 mph - N/A   Scattered Clouds
8:15 AM 64.4 °F - 46.4 °F 52% 30.23 in 10.0 mi SSW 3.5 mph - N/A   Scattered Clouds
8:35 AM 68.0 °F - 44.6 °F 43% 30.23 in 10.0 mi SW 3.5 mph - N/A   Scattered Clouds
8:55 AM 69.8 °F - 50.0 °F 49% 30.24 in 10.0 mi Calm Calm - N/A   Clear
9:15 AM 71.6 °F - 44.6 °F 38% 30.24 in 10.0 mi WSW 3.5 mph - N/A   Clear
9:40 AM 73.4 °F - 46.4 °F 38% 30.25 in 10.0 mi West 3.5 mph - N/A   Clear
9:55 AM 77.0 °F - 44.6 °F 32% 30.25 in 10.0 mi West 4.6 mph - N/A   Clear
10:15 AM 78.8 °F - 42.8 °F 28% 30.25 in 10.0 mi Calm Calm - N/A   Clear
10:35 AM 80.6 °F - 41.0 °F 24% 30.25 in 10.0 mi WNW 6.9 mph - N/A   Clear
10:55 AM 80.6 °F - 44.6 °F 28% 30.24 in 10.0 mi West 6.9 mph - N/A   Clear
11:15 AM 82.4 °F - 44.6 °F 26% 30.24 in 10.0 mi WNW 6.9 mph - N/A   Clear
11:35 AM 82.4 °F - 44.6 °F 26% 30.24 in 10.0 mi NNW 8.1 mph - N/A   Clear
11:55 AM 82.4 °F - 44.6 °F 26% 30.24 in 10.0 mi NNW 8.1 mph - N/A   Clear
12:15 PM 82.4 °F - 50.0 °F 32% 30.23 in 10.0 mi NNW 6.9 mph - N/A   Clear
12:35 PM 84.2 °F - 50.0 °F 30% 30.23 in 10.0 mi WNW 6.9 mph - N/A   Clear
12:55 PM 84.2 °F - 50.0 °F 30% 30.22 in 10.0 mi NNW 5.8 mph 16.1 mph N/A   Clear
1:15 PM 84.2 °F - 50.0 °F 30% 30.21 in 10.0 mi West 9.2 mph - N/A   Clear
1:35 PM 86.0 °F - 50.0 °F 29% 30.21 in 10.0 mi NNW 6.9 mph - N/A   Clear
1:55 PM 86.0 °F - 50.0 °F 29% 30.19 in 10.0 mi North 4.6 mph - N/A   Clear
2:15 PM 86.0 °F - 50.0 °F 29% 30.19 in 10.0 mi North 3.5 mph - N/A   Clear
2:35 PM 84.2 °F - 51.8 °F 33% 30.18 in 10.0 mi North 5.8 mph - N/A   Mostly Cloudy
2:55 PM 86.0 °F - 51.8 °F 31% 30.17 in 10.0 mi WNW 5.8 mph - N/A   Mostly Cloudy
3:15 PM 87.8 °F - 51.8 °F 29% 30.16 in 10.0 mi NNW 10.4 mph - N/A   Scattered Clouds
3:35 PM 86.0 °F - 51.8 °F 31% 30.16 in 10.0 mi West 10.4 mph - N/A   Mostly Cloudy
3:55 PM 86.0 °F - 51.8 °F 31% 30.16 in 10.0 mi WNW 5.8 mph - N/A   Overcast
4:15 PM 87.8 °F - 51.8 °F 29% 30.15 in 10.0 mi North 10.4 mph - N/A   Mostly Cloudy
4:35 PM 86.0 °F - 51.8 °F 31% 30.15 in 10.0 mi NNW 6.9 mph - N/A   Mostly Cloudy
4:55 PM 84.2 °F - 51.8 °F 33% 30.14 in 10.0 mi WNW 5.8 mph - N/A   Overcast
5:15 PM 86.0 °F - 51.8 °F 31% 30.14 in 10.0 mi WNW 9.2 mph - N/A   Overcast
5:35 PM 82.4 °F 81.4 °F 53.6 °F 37% 30.14 in 10.0 mi NNW 5.8 mph - N/A   Overcast
5:55 PM 86.0 °F 84.2 °F 53.6 °F 33% 30.13 in 10.0 mi NW 6.9 mph - N/A   Mostly Cloudy
6:15 PM 84.2 °F 82.8 °F 53.6 °F 35% 30.13 in 10.0 mi NNW 4.6 mph - N/A   Scattered Clouds
6:35 PM 82.4 °F 81.4 °F 53.6 °F 37% 30.13 in 10.0 mi NW 4.6 mph - N/A   Clear
7:00 PM 80.6 °F 80.5 °F 55.4 °F 42% 30.13 in 10.0 mi Calm Calm - N/A   Clear
7:15 PM 80.6 °F 80.5 °F 55.4 °F 42% 30.13 in 10.0 mi Calm Calm - N/A   Scattered Clouds
7:35 PM 80.6 °F 80.5 °F 55.4 °F 42% 30.13 in 10.0 mi Calm Calm - N/A   Scattered Clouds
7:55 PM 78.8 °F - 55.4 °F 44% 30.13 in 10.0 mi Calm Calm - N/A   Mostly Cloudy
8:15 PM 78.8 °F - 57.2 °F 47% 30.13 in 10.0 mi Calm Calm - N/A   Scattered Clouds
8:35 PM 75.2 °F - 57.2 °F 53% 30.13 in 10.0 mi Calm Calm - N/A   Clear
8:55 PM 73.4 °F - 59.0 °F 61% 30.13 in 10.0 mi Calm Calm - N/A   Mostly Cloudy
9:15 PM 73.4 °F - 59.0 °F 61% 30.13 in 10.0 mi Calm Calm - N/A   Mostly Cloudy
9:35 PM 75.2 °F - 59.0 °F 57% 30.14 in 10.0 mi Calm Calm - N/A Rain Light Rain
9:55 PM 73.4 °F - 59.0 °F 61% 30.14 in 10.0 mi Calm Calm - N/A   Overcast
10:15 PM 75.2 °F - 59.0 °F 57% 30.14 in 10.0 mi SSW 3.5 mph - N/A   Scattered Clouds
10:35 PM 71.6 °F - 59.0 °F 64% 30.14 in 10.0 mi Calm Calm - N/A   Scattered Clouds
10:55 PM 71.6 °F - 59.0 °F 64% 30.14 in 10.0 mi SSW 3.5 mph - N/A   Mostly Cloudy
11:15 PM 73.4 °F - 59.0 °F 61% 30.15 in 10.0 mi Calm Calm - N/A   Overcast
11:35 PM 73.4 °F - 59.0 °F 61% 30.15 in 10.0 mi Calm Calm - N/A   Overcast
11:55 PM 77.0 °F - 59.0 °F 54% 30.15 in 10.0 mi North 4.6 mph - N/A   Overcast